Погода в Уиллистоне

США     48°09′15″N   103°37′32″W
темп.,
°C
ветер,
м/с
пор.,
м/с
влажн.,
%
обл.,
%
осадки,
мм/ч
давл.,
гПа
погр.,
м
31 июля, сб
сб3101:00+21ссв34370 0.0 102151
04:00+19ссв33390 0.0 102230
07:00+17в11390 0.0 102311
10:00+26сз11250 0.0 1023428
13:00+30с46190 0.0 10222445
16:00+32с56174 0.0 10203216
19:00+31ссв66170 0.0 10192860
22:00+23ссв47290 0.0 1021101
1 августа, вс
вс101:00+20в33370 0.0 102235
04:00+18юв23420 0.0 102332
07:00+17юв22430 0.0 102318
10:00+24ююв33280 0.0 1023410
13:00+30в21190 0.0 10212391
16:00+32всв33165 0.0 10182864
19:00+32всв3315100 0.0 10162624
22:00+25всв332315 0.0 101722
2 августа, пн
пн201:00+21всв2230100 0.0 101815
04:00+20вюв2232100 0.0 101813
07:00+19вюв1134100 0.0 101811
10:00+27в2223100 0.0 1017297
13:00+33в451585 0.0 10162672
16:00+35в441294 0.0 10143025
19:00+34в441131 0.0 10123183
22:00+26в461993 0.0 101475
3 августа, вт
вт301:00+25вюв221933 0.0 101411
04:00+23ю332155 0.0 101323
07:00+21ююв222383 0.0 101412
10:00+29ююв341952 0.0 1013371
13:00+36ююв4512100 0.0 10113098
16:00+38ююв44915 0.0 10093951
19:00+37ююв4511100 0.0 10074075
22:00+31вюв4615100 0.0 100779
4 августа, ср
ср401:00+30ю61417100 0.0 1007728
04:00+28ссз3420100 0.0 100656
07:00+25с3430100 0.0 100896
10:00+30сз352477 0.0 1009551
13:00+35сз67221 0.0 10082968
16:00+37ссз810132 0.0 10073816
19:00+35с781410 0.0 10083451
22:00+29сз61023100 0.0 1010288